This is the latest recevied weather packets stored in our database for station/object NR0A-4. If no packets are shown the sender has not sent any weather packets the latest 10 day(s).
| Time | Temp. | Humidity | Pressure | Rain* | Wind** | Luminosity | Snow |
|---|---|---|---|---|---|---|---|
| 1778096704 | 14.44° C | 28% | 1017 hPa | 0 mm | - | 912 W/m² | - |
| 1778096405 | 15° C | 30% | 1017 hPa | 0 mm | - | 946 W/m² | - |
| 1778096105 | 15° C | 31% | 1017 hPa | 0 mm | - | 483 W/m² | - |
| 1778095804 | 14.44° C | 32% | 1017 hPa | 0 mm | - | 954 W/m² | - |
| 1778095504 | 13.89° C | 31% | 1017.1 hPa | 0 mm | - | 976 W/m² | - |
| 1778095205 | 14.44° C | 30% | 1017.1 hPa | 0 mm | - | 237 W/m² | - |
| 1778094905 | 14.44° C | 28% | 1017.2 hPa | 0 mm | - | 322 W/m² | - |
| 1778094605 | 15° C | 30% | 1017.1 hPa | 0 mm | - | 1076 W/m² | - |
| 1778094305 | 15° C | 32% | 1017.2 hPa | 0 mm | - | 1035 W/m² | - |
| 1778094004 | 14.44° C | 31% | 1017.3 hPa | 0 mm | - | 984 W/m² | - |
| 1778093704 | 14.44° C | 32% | 1017.3 hPa | 0 mm | - | 954 W/m² | - |
| 1778093405 | 13.89° C | 31% | 1017.3 hPa | 0 mm | - | 947 W/m² | - |
| 1778093104 | 13.89° C | 30% | 1017.5 hPa | 0 mm | - | 1007 W/m² | - |
| 1778092804 | 13.89° C | 33% | 1017.5 hPa | 0 mm | - | 1072 W/m² | - |
| 1778092504 | 13.89° C | 33% | 1017.6 hPa | 0 mm | - | 1100 W/m² | - |
| 1778092205 | 13.89° C | 30% | 1017.7 hPa | 0 mm | - | 1032 W/m² | - |
| 1778091904 | 13.89° C | 35% | 1018 hPa | 0 mm | - | 969 W/m² | - |
| 1778091605 | 13.33° C | 34% | 1017.8 hPa | 0 mm | - | 197 W/m² | - |
| 1778091304 | 12.78° C | 32% | 1017.9 hPa | 0 mm | - | 949 W/m² | - |
| 1778091005 | 12.78° C | 31% | 1017.9 hPa | 0 mm | - | 230 W/m² | - |
| 1778090704 | 12.78° C | 33% | 1018.1 hPa | 0 mm | - | 352 W/m² | - |
| 1778090404 | 13.33° C | 33% | 1018.1 hPa | 0 mm | - | 916 W/m² | - |
| 1778090105 | 12.78° C | 34% | 1018.1 hPa | 0 mm | - | 1002 W/m² | - |
| 1778089805 | 12.78° C | 32% | 1018.2 hPa | 0 mm | - | 199 W/m² | - |
| 1778089505 | 12.78° C | 33% | 1018.2 hPa | 0 mm | - | 1025 W/m² | - |
* Rain latest hour (hover to see other rain measurements)
** Current wind speed in m/s (hover to see current wind gust speed)